[Date Prev][Date Next][Thread Prev][Thread Next] - [Date Index][Thread Index][Author Index]
2 Line ISS Keps 12-27 [ update ]
- Subject: [sarex] 2 Line ISS Keps 12-27 [ update ]
- From: "Dave Larsen PhD" <doc@xxxxxxxxxxx>
- Date: Mon, 27 Dec 2004 13:32:42 -0800
ISS
1 25544U 98067A 04362.78813657 .00026149 00000-0 20031-3 0 4581
2 25544 51.6389 57.3798 0004027 140.2998 359.3992 15.71923124348739
----
Via the sarex mailing list at AMSAT.ORG courtesy of AMSAT-NA.
To unsubscribe, send "unsubscribe sarex" to Majordomo@amsat.org
AMSAT Home